FW3145 Weather Reports


Display with metric or nautical units.
time (UTC)temp
F
wind
direction
speed
MPH
gust
MPH
rain 1hr
in
rain 24hr
in
rain mn
in
humidity
%
barometer
mb
20260505101553 60 242 0.0 0.0 0.00 0.00 0.00 76 1016.3
20260505100050 60 243 0.0 0.0 0.00 0.00 0.00 77 1016.3
20260505094549 59 243 0.0 0.0 0.00 0.00 0.00 76 1016.4
20260505093144 58 245 0.0 0.0 0.00 0.00 0.00 76 1016.4
20260505091551 58 230 0.0 0.0 0.00 0.00 0.00 77 1016.3
20260505090045 57 240 0.0 0.0 0.00 0.00 0.00 80 1016.1
20260505084559 58 246 0.0 0.0 0.00 0.00 0.00 80 1016.1
20260505083058 58 269 0.0 0.0 0.00 0.00 0.00 79 1015.9
20260505081552 57 47 0.0 0.0 0.00 0.00 0.00 81 1015.9
20260505080044 56 48 0.0 0.0 0.00 0.00 0.00 81 1016.0
20260505074532 55 200 0.0 0.0 0.00 0.00 0.00 82 1016.5
20260505073045 55 200 0.0 0.0 0.00 0.00 0.00 81 1016.6
20260505071543 55 182 0.0 0.0 0.00 0.00 0.00 80 1016.5
20260505070040 55 130 0.0 0.0 0.00 0.00 0.00 81 1016.3
20260505064534 55 130 0.0 0.0 0.00 0.00 0.00 81 1016.3
20260505063036 55 117 0.0 0.0 0.00 0.00 0.00 81 1016.1
20260505061529 54 117 0.0 0.0 0.00 0.00 0.00 82 1016.1
20260505060048 53 144 0.0 0.0 0.00 0.00 0.00 82 1015.9
20260505054524 53 240 0.0 0.0 0.00 0.00 0.00 81 1016.1
20260505053023 54 227 0.0 0.0 0.00 0.00 0.00 81 1015.8
20260505051520 53 65 0.0 0.0 0.00 0.00 0.00 82 1015.6
20260505041512 51 323 0.0 0.0 0.00 0.00 0.00 82 1015.5
20260505040016 51 323 0.0 0.0 0.00 0.00 0.00 82 1015.4
20260505034509 50 323 0.0 0.0 0.00 0.00 0.00 82 1015.2
20260505033009 50 323 0.0 0.0 0.00 0.00 0.00 82 1015.2
20260505031508 51 325 0.0 0.0 0.00 0.00 0.00 82 1015.1
20260505030007 50 325 0.0 0.0 0.00 0.00 0.00 82 1015.2
20260505024506 50 325 0.0 0.0 0.00 0.00 0.00 82 1015.4
20260505023005 50 323 0.0 0.0 0.00 0.00 0.00 81 1015.5
20260505021505 51 323 0.0 0.0 0.00 0.00 0.00 81 1015.6
20260505020004 51 324 0.0 0.0 0.00 0.00 0.00 82 1015.5
20260505014503 50 324 0.0 0.0 0.00 0.00 0.00 82 1015.7
20260505013002 49 324 0.0 0.0 0.00 0.00 0.00 81 1015.8
20260505011601 50 324 0.0 0.0 0.00 0.00 0.00 81 1015.7
20260505010103 50 324 0.0 0.0 0.00 0.00 0.00 81 1015.8
20260505004556 50 324 0.0 0.0 0.00 0.00 0.00 81 1015.9
20260505003101 50 324 0.0 0.0 0.00 0.00 0.00 81 1016.1
20260505001558 50 324 0.0 0.0 0.00 0.00 0.00 81 1016.3
20260505000058 50 351 0.0 0.0 0.00 0.00 0.00 81 1016.4
20260504234551 50 351 0.0 0.0 0.00 0.00 0.00 81 1016.4
20260504233049 51 325 0.0 0.0 0.00 0.00 0.00 80 1016.6
20260504231549 51 325 0.0 0.0 0.00 0.00 0.00 80 1016.5
20260504230047 51 337 0.0 0.0 0.00 0.00 0.00 80 1016.6
20260504224545 51 338 0.0 0.0 0.00 0.00 0.00 79 1016.8
20260504223058 52 12 0.0 0.0 0.00 0.00 0.00 79 1016.8
20260504221541 52 12 0.0 0.0 0.00 0.00 0.00 78 1016.9
20260504220037 53 27 0.0 0.0 0.00 0.00 0.00 77 1016.9
20260504214535 55 44 0.0 0.0 0.00 0.00 0.00 75 1016.9
20260504213036 56 38 0.0 0.0 0.00 0.00 0.00 77 1016.8
20260504211553 55 18 0.0 0.0 0.00 0.00 0.00 77 1016.9
20260504210042 56 19 0.0 0.0 0.00 0.00 0.00 76 1017.1
20260504204534 56 42 0.0 0.0 0.00 0.00 0.00 75 1017.0
20260504203033 57 63 0.0 0.0 0.00 0.00 0.00 74 1016.9
20260504201533 57 63 0.0 0.0 0.00 0.00 0.00 73 1016.9
20260504200033 59 63 0.0 0.0 0.00 0.00 0.00 71 1016.9
20260504194533 60 63 0.0 0.0 0.00 0.00 0.00 68 1016.9
20260504193035 61 63 0.0 0.0 0.00 0.00 0.00 65 1016.8
20260504191535 61 67 0.0 0.0 0.00 0.00 0.00 64 1016.8
20260504190029 62 53 0.0 0.0 0.00 0.00 0.00 62 1016.7
20260504184543 62 50 0.0 0.0 0.00 0.00 0.00 63 1016.5
20260504183029 63 72 0.0 0.0 0.00 0.00 0.00 63 1016.4
20260504181533 63 140 0.0 0.0 0.00 0.00 0.00 64 1016.2
20260504180028 64 252 0.0 0.0 0.00 0.00 0.00 64 1016.1
20260504174528 65 207 0.0 0.0 0.00 0.00 0.00 61 1015.9
20260504173028 66 206 0.0 0.0 0.00 0.00 0.00 60 1015.8
20260504171529 66 255 0.0 0.0 0.00 0.00 0.00 58 1015.8